Location: Unspecified
(52.4292°N, 19.3359°E)
Time: 23:34:20
(UTC+02:00)

Transit 2A Rocket - Pass Details

Date: 30 May 2024
Orbit: 583 x 910 km, 66.7° (Epoch: 12 June)

Event Time Altitude Azimuth Distance (km) Brightness Sun altitude
Rises 04:46:24 0° 254° (WSW) 3,105 7.5 1.4°
Reaches altitude 10° 04:48:53 10° 264° (W) 2,242 6.9 1.7°
Maximum altitude 04:53:32 33° 329° (NNW) 1,300 6.3 2.3°
Drops below altitude 10° 04:58:36 10° 33° (NNE) 2,448 9.0 3.0°
Sets 05:01:25 0° 43° (NE) 3,433 10.3 3.3°
